Location: Huesca
(42.1318°N, 0.4078°W)
Time: 13:18:08
(UTC+02:00)

Vanguard 2 - Visible Passes

Search period start: 19 July 2024 00:00
Search period end: 29 July 2024 00:00
Orbit: 552 x 2913 km, 32.9° (Epoch: 19 July)

Date Brightness Start Highest point End Pass type
(mag) Time Alt. Az. Time Alt. Az. Time Alt. Az.
19 Jul 9.6 03:40:29 24° SSE 03:40:29 24° SSE 03:44:58 10° SE visible
19 Jul 9.9 05:41:42 12° WSW 05:46:10 19° SSW 05:53:00 10° SSE visible
20 Jul 9.8 03:55:02 20° SSE 03:55:02 20° SSE 03:58:32 10° SE visible
20 Jul 10.1 05:56:32 10° SW 06:00:19 14° SSW 06:04:50 10° S visible
21 Jul 10.1 04:09:42 15° SSE 04:09:42 15° SSE 04:11:50 10° SSE visible
22 Jul 10.4 04:24:26 10° SSE 04:24:26 10° SSE 04:24:41 10° SSE visible
22 Jul 8.8 22:09:32 10° S 22:11:21 12° SSE 22:13:06 10° SE visible
23 Jul 8.6 22:22:40 10° SSW 22:25:18 16° SSE 22:26:56 13° SE visible
24 Jul 8.3 22:36:13 10° SW 22:39:16 19° S 22:40:29 17° SE visible
25 Jul 8.1 22:49:57 10° SW 22:53:14 22° S 22:53:58 21° SSE visible
26 Jul 8.1 23:03:51 10° SW 23:07:12 23° S 23:07:24 23° S visible
27 Jul 8.2 23:17:51 10° WSW 23:20:47 22° SSW 23:20:47 22° SSW visible
28 Jul 8.6 23:31:56 10° WSW 23:34:07 19° SSW 23:34:07 19° SSW visible
